Year,Month,Day,Hour,Minute,Value (Times are PST for temperature in C)
2014,12,07,00,00,8.60
2014,12,07,00,01,8.60
2014,12,07,00,02,8.60
2014,12,07,00,03,8.60
2014,12,07,00,04,8.50
2014,12,07,00,05,8.50
2014,12,07,00,06,8.50
2014,12,07,00,07,8.50
2014,12,07,00,08,8.50
2014,12,07,00,09,8.50
2014,12,07,00,10,8.40
2014,12,07,00,11,8.40
2014,12,07,00,12,8.40
2014,12,07,00,13,8.40
2014,12,07,00,14,8.40
2014,12,07,00,15,8.40
2014,12,07,00,16,8.40
2014,12,07,00,17,8.40
2014,12,07,00,18,8.40
2014,12,07,00,19,8.40
2014,12,07,00,20,8.40
2014,12,07,00,21,8.40
2014,12,07,00,22,8.40
2014,12,07,00,23,8.40
2014,12,07,00,24,8.40
2014,12,07,00,25,8.40
2014,12,07,00,26,8.40
2014,12,07,00,27,8.40
2014,12,07,00,28,8.40
2014,12,07,00,29,8.40
2014,12,07,00,30,8.40
2014,12,07,00,31,8.40
2014,12,07,00,32,8.40
2014,12,07,00,33,8.40
2014,12,07,00,34,8.40
2014,12,07,00,35,8.40
2014,12,07,00,36,8.40
2014,12,07,00,37,8.40
2014,12,07,00,38,8.40
2014,12,07,00,39,8.40
2014,12,07,00,40,8.40
2014,12,07,00,41,8.40
2014,12,07,00,42,8.40
2014,12,07,00,43,8.40
2014,12,07,00,44,8.40
2014,12,07,00,45,8.30
2014,12,07,00,46,8.30
2014,12,07,00,47,8.30
2014,12,07,00,48,8.30
2014,12,07,00,49,8.30
2014,12,07,00,50,8.30
2014,12,07,00,51,8.30
2014,12,07,00,52,8.30
2014,12,07,00,53,8.30
2014,12,07,00,54,8.30
2014,12,07,00,55,8.30
2014,12,07,00,56,8.30
2014,12,07,00,57,8.30
2014,12,07,00,58,8.30
2014,12,07,00,59,8.30
2014,12,07,01,00,8.30
2014,12,07,01,01,8.30
2014,12,07,01,02,8.30
2014,12,07,01,03,8.30
2014,12,07,01,04,8.30
2014,12,07,01,05,8.30
2014,12,07,01,06,8.30
2014,12,07,01,07,8.30
2014,12,07,01,08,8.30
2014,12,07,01,09,8.30
2014,12,07,01,10,8.30
2014,12,07,01,11,8.30
2014,12,07,01,12,8.30
2014,12,07,01,13,8.30
2014,12,07,01,14,8.30
2014,12,07,01,15,8.30
2014,12,07,01,16,8.30
2014,12,07,01,17,8.30
2014,12,07,01,18,8.30
2014,12,07,01,19,8.30
2014,12,07,01,20,8.30
2014,12,07,01,21,8.30
2014,12,07,01,22,8.30
2014,12,07,01,23,8.30
2014,12,07,01,24,8.20
2014,12,07,01,25,8.20
2014,12,07,01,26,8.20
2014,12,07,01,27,8.20
2014,12,07,01,28,8.20
2014,12,07,01,29,8.20
2014,12,07,01,30,8.20
2014,12,07,01,31,8.20
2014,12,07,01,32,8.20
2014,12,07,01,33,8.20
2014,12,07,01,34,8.20
2014,12,07,01,35,8.10
2014,12,07,01,36,8.10
2014,12,07,01,37,8.10
2014,12,07,01,38,8.10
2014,12,07,01,39,8.10
2014,12,07,01,40,8.10
2014,12,07,01,41,8.10
2014,12,07,01,42,8.10
2014,12,07,01,43,8.10
2014,12,07,01,44,8.10
2014,12,07,01,45,8.10
2014,12,07,01,46,8.10
2014,12,07,01,47,8.10
2014,12,07,01,48,8.10
2014,12,07,01,49,8.10
2014,12,07,01,50,8.10
2014,12,07,01,51,8.20
2014,12,07,01,52,8.20
2014,12,07,01,53,8.20
2014,12,07,01,54,8.20
2014,12,07,01,55,8.20
2014,12,07,01,56,8.20
2014,12,07,01,57,8.20
2014,12,07,01,58,8.20
2014,12,07,01,59,8.20
2014,12,07,02,00,8.10
2014,12,07,02,01,8.10
2014,12,07,02,02,8.10
2014,12,07,02,03,8.10
2014,12,07,02,04,8.10
2014,12,07,02,05,8.10
2014,12,07,02,06,8.10
2014,12,07,02,07,8.10
2014,12,07,02,08,8.00
2014,12,07,02,09,8.00
2014,12,07,02,10,8.00
2014,12,07,02,11,8.00
2014,12,07,02,12,8.00
2014,12,07,02,13,7.90
2014,12,07,02,14,7.90
2014,12,07,02,15,7.90
2014,12,07,02,16,7.90
2014,12,07,02,17,7.90
2014,12,07,02,18,7.90
2014,12,07,02,19,7.90
2014,12,07,02,20,7.90
2014,12,07,02,21,7.90
2014,12,07,02,22,7.90
2014,12,07,02,23,7.90
2014,12,07,02,24,7.90
2014,12,07,02,25,7.90
2014,12,07,02,26,7.90
2014,12,07,02,27,7.90
2014,12,07,02,28,7.90
2014,12,07,02,29,7.90
2014,12,07,02,30,7.90
2014,12,07,02,31,7.90
2014,12,07,02,32,7.90
2014,12,07,02,33,8.00
2014,12,07,02,34,8.00
2014,12,07,02,35,8.00
2014,12,07,02,36,8.00
2014,12,07,02,37,8.10
2014,12,07,02,38,8.10
2014,12,07,02,39,8.10
2014,12,07,02,40,8.10
2014,12,07,02,41,8.10
2014,12,07,02,42,8.10
2014,12,07,02,43,8.10
2014,12,07,02,44,8.10
2014,12,07,02,45,8.10
2014,12,07,02,46,8.20
2014,12,07,02,47,8.20
2014,12,07,02,48,8.20
2014,12,07,02,49,8.20
2014,12,07,02,50,8.20
2014,12,07,02,51,8.20
2014,12,07,02,52,8.20
2014,12,07,02,53,8.20
2014,12,07,02,54,8.20
2014,12,07,02,55,8.20
2014,12,07,02,56,8.20
2014,12,07,02,57,8.20
2014,12,07,02,58,8.20
2014,12,07,02,59,8.20
2014,12,07,03,00,8.20
2014,12,07,03,01,8.20
2014,12,07,03,02,8.20
2014,12,07,03,03,8.20
2014,12,07,03,04,8.30
2014,12,07,03,05,8.30
2014,12,07,03,06,8.30
2014,12,07,03,07,8.30
2014,12,07,03,08,8.30
2014,12,07,03,09,8.30
2014,12,07,03,10,8.30
2014,12,07,03,11,8.30
2014,12,07,03,12,8.30
2014,12,07,03,13,8.30
2014,12,07,03,14,8.30
2014,12,07,03,15,8.30
2014,12,07,03,16,8.30
2014,12,07,03,17,8.30
2014,12,07,03,18,8.30
2014,12,07,03,19,8.30
2014,12,07,03,20,8.30
2014,12,07,03,21,8.30
2014,12,07,03,22,8.40
2014,12,07,03,23,8.40
2014,12,07,03,24,8.40
2014,12,07,03,25,8.40
2014,12,07,03,26,8.40
2014,12,07,03,27,8.40
2014,12,07,03,28,8.40
2014,12,07,03,29,8.40
2014,12,07,03,30,8.40
2014,12,07,03,31,8.40
2014,12,07,03,32,8.40
2014,12,07,03,33,8.40
2014,12,07,03,34,8.40
2014,12,07,03,35,8.40
2014,12,07,03,36,8.40
2014,12,07,03,37,8.40
2014,12,07,03,38,8.50
2014,12,07,03,39,8.40
2014,12,07,03,40,8.40
2014,12,07,03,41,8.40
2014,12,07,03,42,8.40
2014,12,07,03,43,8.40
2014,12,07,03,44,8.40
2014,12,07,03,45,8.40
2014,12,07,03,46,8.50
2014,12,07,03,47,8.50
2014,12,07,03,48,8.50
2014,12,07,03,49,8.50
2014,12,07,03,50,8.50
2014,12,07,03,51,8.50
2014,12,07,03,52,8.50
2014,12,07,03,53,8.50
2014,12,07,03,54,8.50
2014,12,07,03,55,8.50
2014,12,07,03,56,8.40
2014,12,07,03,57,8.50
2014,12,07,03,58,8.50
2014,12,07,03,59,8.50
2014,12,07,04,00,8.50
2014,12,07,04,01,8.50
2014,12,07,04,02,8.50
2014,12,07,04,03,8.50
2014,12,07,04,04,8.50
2014,12,07,04,05,8.50
2014,12,07,04,06,8.50
2014,12,07,04,07,8.50
2014,12,07,04,08,8.50
2014,12,07,04,09,8.50
2014,12,07,04,10,8.50
2014,12,07,04,11,8.50
2014,12,07,04,12,8.50
2014,12,07,04,13,8.50
2014,12,07,04,14,8.50
2014,12,07,04,15,8.40
2014,12,07,04,16,8.40
2014,12,07,04,17,8.50
2014,12,07,04,18,8.50
2014,12,07,04,19,8.50
2014,12,07,04,20,8.50
2014,12,07,04,21,8.50
2014,12,07,04,22,8.50
2014,12,07,04,23,8.50
2014,12,07,04,24,8.50
2014,12,07,04,25,8.50
2014,12,07,04,26,8.50
2014,12,07,04,27,8.50
2014,12,07,04,28,8.60
2014,12,07,04,29,8.60
2014,12,07,04,30,8.60
2014,12,07,04,31,8.60
2014,12,07,04,32,8.60
2014,12,07,04,33,8.60
2014,12,07,04,34,8.60
2014,12,07,04,35,8.60
2014,12,07,04,36,8.60
2014,12,07,04,37,8.70
2014,12,07,04,38,8.70
2014,12,07,04,39,8.70
2014,12,07,04,40,8.70
2014,12,07,04,41,8.70
2014,12,07,04,42,8.70
2014,12,07,04,43,8.70
2014,12,07,04,44,8.70
2014,12,07,04,45,8.70
2014,12,07,04,46,8.70
2014,12,07,04,47,8.70
2014,12,07,04,48,8.70
2014,12,07,04,49,8.70
2014,12,07,04,50,8.70
2014,12,07,04,51,8.70
2014,12,07,04,52,8.70
2014,12,07,04,53,8.70
2014,12,07,04,54,8.70
2014,12,07,04,55,8.70
2014,12,07,04,56,8.70
2014,12,07,04,57,8.70
2014,12,07,04,58,8.70
2014,12,07,04,59,8.70
2014,12,07,05,00,8.70
2014,12,07,05,01,8.70
2014,12,07,05,02,8.70
2014,12,07,05,03,8.70
2014,12,07,05,04,8.70
2014,12,07,05,05,8.70
2014,12,07,05,06,8.70
2014,12,07,05,07,8.70
2014,12,07,05,08,8.70
2014,12,07,05,09,8.70
2014,12,07,05,10,8.70
2014,12,07,05,11,8.70
2014,12,07,05,12,8.70
2014,12,07,05,13,8.70
2014,12,07,05,14,8.70
2014,12,07,05,15,8.70
2014,12,07,05,16,8.70
2014,12,07,05,17,8.70
2014,12,07,05,18,8.70
2014,12,07,05,19,8.70
2014,12,07,05,20,8.70
2014,12,07,05,21,8.70
2014,12,07,05,22,8.70
2014,12,07,05,23,8.70
2014,12,07,05,24,8.70
2014,12,07,05,25,8.70
2014,12,07,05,26,8.70
2014,12,07,05,27,8.70
2014,12,07,05,28,8.70
2014,12,07,05,29,8.70
2014,12,07,05,30,8.80
2014,12,07,05,31,8.80
2014,12,07,05,32,8.80
2014,12,07,05,33,8.80
2014,12,07,05,34,8.80
2014,12,07,05,35,8.80
2014,12,07,05,36,8.80
2014,12,07,05,37,8.80
2014,12,07,05,38,8.80
2014,12,07,05,39,8.80
2014,12,07,05,40,8.80
2014,12,07,05,41,8.80
2014,12,07,05,42,8.80
2014,12,07,05,43,8.80
2014,12,07,05,44,8.80
2014,12,07,05,45,8.80
2014,12,07,05,46,8.80
2014,12,07,05,47,8.80
2014,12,07,05,48,8.80
2014,12,07,05,49,8.90
2014,12,07,05,50,8.90
2014,12,07,05,51,8.90
2014,12,07,05,52,8.90
2014,12,07,05,53,8.90
2014,12,07,05,54,8.90
2014,12,07,05,55,8.90
2014,12,07,05,56,8.90
2014,12,07,05,57,8.90
2014,12,07,05,58,8.90
2014,12,07,05,59,8.90
2014,12,07,06,00,8.90
2014,12,07,06,01,8.90
2014,12,07,06,02,8.90
2014,12,07,06,03,8.90
2014,12,07,06,04,8.90
2014,12,07,06,05,8.90
2014,12,07,06,06,8.90
2014,12,07,06,07,8.90
2014,12,07,06,08,8.90
2014,12,07,06,09,8.90
2014,12,07,06,10,8.90
2014,12,07,06,11,9.00
2014,12,07,06,12,9.00
2014,12,07,06,13,9.00
2014,12,07,06,14,9.00
2014,12,07,06,15,9.00
2014,12,07,06,16,9.00
2014,12,07,06,17,9.00
2014,12,07,06,18,9.00
2014,12,07,06,19,9.10
2014,12,07,06,20,9.10
2014,12,07,06,21,9.10
2014,12,07,06,22,9.10
2014,12,07,06,23,9.10
2014,12,07,06,24,9.10
2014,12,07,06,25,9.10
2014,12,07,06,26,9.10
2014,12,07,06,27,9.10
2014,12,07,06,28,9.10
2014,12,07,06,29,9.10
2014,12,07,06,30,9.10
2014,12,07,06,31,9.10
2014,12,07,06,32,9.10
2014,12,07,06,33,9.10
2014,12,07,06,34,9.10
2014,12,07,06,35,9.10
2014,12,07,06,36,9.10
2014,12,07,06,37,9.10
2014,12,07,06,38,9.10
2014,12,07,06,39,9.10
2014,12,07,06,40,9.20
2014,12,07,06,41,9.20
2014,12,07,06,42,9.20
2014,12,07,06,43,9.20
2014,12,07,06,44,9.20
2014,12,07,06,45,9.20
2014,12,07,06,46,9.20
2014,12,07,06,47,9.20
2014,12,07,06,48,9.30
2014,12,07,06,49,9.30
2014,12,07,06,50,9.30
2014,12,07,06,51,9.30
2014,12,07,06,52,9.30
2014,12,07,06,53,9.30
2014,12,07,06,54,9.30
2014,12,07,06,55,9.30
2014,12,07,06,56,9.30
2014,12,07,06,57,9.30
2014,12,07,06,58,9.30
2014,12,07,06,59,9.30
2014,12,07,07,00,9.30
2014,12,07,07,01,9.30
2014,12,07,07,02,9.30
2014,12,07,07,03,9.30
2014,12,07,07,04,9.30
2014,12,07,07,05,9.30
2014,12,07,07,06,9.30
2014,12,07,07,07,9.30
2014,12,07,07,08,9.30
2014,12,07,07,09,9.30
2014,12,07,07,10,9.30
2014,12,07,07,11,9.30
2014,12,07,07,12,9.30
2014,12,07,07,13,9.30
2014,12,07,07,14,9.30
2014,12,07,07,15,9.30
2014,12,07,07,16,9.30
2014,12,07,07,17,9.30
2014,12,07,07,18,9.30
2014,12,07,07,19,9.30
2014,12,07,07,20,9.30
2014,12,07,07,21,9.40
2014,12,07,07,22,9.40
2014,12,07,07,23,9.40
2014,12,07,07,24,9.40
2014,12,07,07,25,9.40
2014,12,07,07,26,9.40
2014,12,07,07,27,9.40
2014,12,07,07,28,9.40
2014,12,07,07,29,9.40
2014,12,07,07,30,9.40
2014,12,07,07,31,9.40
2014,12,07,07,32,9.40
2014,12,07,07,33,9.40
2014,12,07,07,34,9.50
2014,12,07,07,35,9.50
2014,12,07,07,36,9.50
2014,12,07,07,37,9.50
2014,12,07,07,38,9.50
2014,12,07,07,39,9.50
2014,12,07,07,40,9.50
2014,12,07,07,41,9.50
2014,12,07,07,42,9.50
2014,12,07,07,43,9.50
2014,12,07,07,44,9.50
2014,12,07,07,45,9.50
2014,12,07,07,46,9.50
2014,12,07,07,47,9.50
2014,12,07,07,48,9.50
2014,12,07,07,49,9.40
2014,12,07,07,50,9.40
2014,12,07,07,51,9.40
2014,12,07,07,52,9.40
2014,12,07,07,53,9.40
2014,12,07,07,54,9.40
2014,12,07,07,55,9.40
2014,12,07,07,56,9.40
2014,12,07,07,57,9.40
2014,12,07,07,58,9.40
2014,12,07,07,59,9.40
2014,12,07,08,00,9.40
2014,12,07,08,01,9.40
2014,12,07,08,02,9.40
2014,12,07,08,03,9.40
2014,12,07,08,04,9.40
2014,12,07,08,05,9.40
2014,12,07,08,06,9.40
2014,12,07,08,07,9.40
2014,12,07,08,08,9.40
2014,12,07,08,09,9.40
2014,12,07,08,10,9.40
2014,12,07,08,11,9.40
2014,12,07,08,12,9.40
2014,12,07,08,13,9.40
2014,12,07,08,14,9.40
2014,12,07,08,15,9.40
2014,12,07,08,16,9.40
2014,12,07,08,17,9.40
2014,12,07,08,18,9.40
2014,12,07,08,19,9.40
2014,12,07,08,20,9.40
2014,12,07,08,21,9.40
2014,12,07,08,22,9.40
2014,12,07,08,23,9.40
2014,12,07,08,24,9.40
2014,12,07,08,25,9.40
2014,12,07,08,26,9.40
2014,12,07,08,27,9.40
2014,12,07,08,28,9.40
2014,12,07,08,29,9.40
2014,12,07,08,30,9.40
2014,12,07,08,31,9.40
2014,12,07,08,32,9.40
2014,12,07,08,33,9.40
2014,12,07,08,34,9.40
2014,12,07,08,35,9.40
2014,12,07,08,36,9.40
2014,12,07,08,37,9.40
2014,12,07,08,38,9.50
2014,12,07,08,39,9.50
2014,12,07,08,40,9.50
2014,12,07,08,41,9.50
2014,12,07,08,42,9.50
2014,12,07,08,43,9.50
2014,12,07,08,44,9.60
2014,12,07,08,45,9.60
2014,12,07,08,46,9.60
2014,12,07,08,47,9.60
2014,12,07,08,48,9.60
2014,12,07,08,49,9.60
2014,12,07,08,50,9.60
2014,12,07,08,51,9.60
2014,12,07,08,52,9.60
2014,12,07,08,53,9.60
2014,12,07,08,54,9.60
2014,12,07,08,55,9.60
2014,12,07,08,56,9.60
2014,12,07,08,57,9.60
2014,12,07,08,58,9.60
2014,12,07,08,59,9.60
2014,12,07,09,00,9.60
2014,12,07,09,01,9.60
2014,12,07,09,02,9.60
2014,12,07,09,03,9.60
2014,12,07,09,04,9.60
2014,12,07,09,05,9.60
2014,12,07,09,06,9.60
2014,12,07,09,07,9.60
2014,12,07,09,08,9.60
2014,12,07,09,09,9.60
2014,12,07,09,10,9.60
2014,12,07,09,11,9.60
2014,12,07,09,12,9.60
